Voltar ao catálogo

STARLINK-34414

AtivoComunicaçõesVLEO
NORAD 64620·PAYLOAD·🇺🇸 United States

Lançado Jun 25, 2025 de Cape Canaveral Space Force Station

Loading…

Próximas Passagens (próximas 24 horas)

TLE

AtualizadoSource: CelesTrak SupGP

Época: Sep 15, 2026, 03:16 UTC

1 64620C 25137AC  26258.13659722  .00053175  00000+0  15709-2 0  2586
2 64620  53.1566 172.7480 0001291 100.3523 331.9130 15.34368341    11

Acompanhe STARLINK-34414 em tempo real com AllMySat

Download on the App Store